TimeCST,TemperatureF,Dew PointF,Humidity,Sea Level PressureIn,VisibilityMPH,Wind Direction,Wind SpeedMPH,Gust SpeedMPH,PrecipitationIn,Events,Conditions,WindDirDegrees,DateUTC
12:18 AM,64.4,62.6,94,29.88,5.0,South,6.9,-,N/A,,Mostly Cloudy,180,2013-02-22 06:18:00
12:23 AM,64.4,62.6,94,29.87,6.0,South,9.2,-,N/A,,Mostly Cloudy,170,2013-02-22 06:23:00
12:28 AM,64.4,62.6,94,29.87,7.0,South,8.1,-,N/A,,Mostly Cloudy,180,2013-02-22 06:28:00
12:32 AM,64.4,62.6,94,29.88,7.0,South,8.1,-,N/A,Thunderstorm,Thunderstorm,180,2013-02-22 06:32:00
12:47 AM,64.4,62.6,94,29.88,7.0,South,4.6,-,N/A,Thunderstorm,Overcast,170,2013-02-22 06:47:00
12:49 AM,64.4,62.6,94,29.88,7.0,South,4.6,-,N/A,Thunderstorm,Thunderstorm,190,2013-02-22 06:49:00
12:54 AM,64.4,62.6,94,29.88,7.0,SSW,3.5,-,N/A,Thunderstorm,Thunderstorm,200,2013-02-22 06:54:00
12:58 AM,63.7,62.6,96,29.89,7.0,South,3.5,-,N/A,Thunderstorm,Thunderstorm,190,2013-02-22 06:58:00
1:03 AM,64.4,62.6,94,29.87,7.0,SE,3.5,-,N/A,Thunderstorm,Thunderstorm,140,2013-02-22 07:03:00
1:18 AM,64.4,62.6,94,29.87,8.0,South,12.7,17.3,N/A,Thunderstorm,Overcast,190,2013-02-22 07:18:00
1:25 AM,64.4,64.4,100,29.89,7.0,West,9.2,18.4,N/A,Thunderstorm,Overcast,270,2013-02-22 07:25:00
1:26 AM,64.4,64.4,100,29.89,6.0,West,6.9,18.4,N/A,Thunderstorm,Overcast,260,2013-02-22 07:26:00
1:28 AM,66.2,64.4,94,29.88,5.0,WSW,9.2,18.4,N/A,Rain-Thunderstorm,Heavy Rain,250,2013-02-22 07:28:00
1:36 AM,66.2,66.2,100,29.87,6.0,Variable,4.6,-,N/A,Rain-Thunderstorm,Light Rain,0,2013-02-22 07:36:00
1:39 AM,66.2,66.2,100,29.87,9.0,West,3.5,-,N/A,Rain-Thunderstorm,Light Rain,270,2013-02-22 07:39:00
1:42 AM,66.2,66.2,100,29.88,10.0,West,6.9,-,N/A,Thunderstorm,Overcast,270,2013-02-22 07:42:00
1:45 AM,66.2,66.2,100,29.88,6.0,Variable,5.8,-,N/A,Rain-Thunderstorm,Light Rain,0,2013-02-22 07:45:00
1:46 AM,66.2,66.2,100,29.88,6.0,SW,5.8,-,N/A,Rain-Thunderstorm,Light Rain,230,2013-02-22 07:46:00
1:53 AM,66.2,66.2,100,29.88,4.0,WSW,8.1,-,N/A,Rain,Light Rain,250,2013-02-22 07:53:00
1:58 AM,66.9,66.0,97,29.89,4.0,WSW,8.1,-,0.16,Rain,Rain,250,2013-02-22 07:58:00
2:03 AM,66.2,66.2,100,29.88,4.0,SW,6.9,-,N/A,Rain,Light Rain,230,2013-02-22 08:03:00
2:08 AM,66.2,66.2,100,29.88,5.0,SW,10.4,-,N/A,Rain,Light Rain,230,2013-02-22 08:08:00
2:13 AM,66.2,66.2,100,29.88,3.0,SW,8.1,-,N/A,Rain,Light Rain,230,2013-02-22 08:13:00
2:18 AM,66.2,64.4,94,29.88,4.0,WSW,6.9,-,N/A,Rain,Light Rain,250,2013-02-22 08:18:00
2:23 AM,66.2,64.4,94,29.87,6.0,WSW,9.2,-,N/A,Rain,Light Rain,250,2013-02-22 08:23:00
2:24 AM,66.2,64.4,94,29.87,5.0,WSW,8.1,-,N/A,,Overcast,250,2013-02-22 08:24:00
2:29 AM,66.2,64.4,94,29.87,4.0,WSW,8.1,-,N/A,,Overcast,240,2013-02-22 08:29:00
2:34 AM,66.2,64.4,94,29.87,6.0,WSW,8.1,-,N/A,,Overcast,240,2013-02-22 08:34:00
2:39 AM,66.2,66.2,100,29.87,8.0,WSW,6.9,-,N/A,,Overcast,240,2013-02-22 08:39:00
2:49 AM,66.2,66.2,100,29.87,4.0,WSW,6.9,-,N/A,,Overcast,250,2013-02-22 08:49:00
2:54 AM,66.2,66.2,100,29.87,2.5,WSW,6.9,-,N/A,,Overcast,250,2013-02-22 08:54:00
2:58 AM,66.2,66.2,100,29.88,2.0,WSW,6.9,-,0.08,,Overcast,240,2013-02-22 08:58:00
2:59 AM,66.2,64.4,94,29.87,2.0,WSW,5.8,-,N/A,Rain,Light Rain,240,2013-02-22 08:59:00
3:04 AM,66.2,64.4,94,29.87,1.8,WSW,8.1,-,N/A,Rain,Light Rain,240,2013-02-22 09:04:00
3:06 AM,66.2,64.4,94,29.87,1.5,WSW,8.1,-,N/A,,Overcast,250,2013-02-22 09:06:00
3:11 AM,66.2,64.4,94,29.88,1.0,WSW,5.8,-,N/A,,Mist,250,2013-02-22 09:11:00
3:16 AM,66.2,64.4,94,29.88,1.0,West,8.1,-,N/A,,Mist,260,2013-02-22 09:16:00
3:21 AM,66.2,64.4,94,29.87,0.8,WSW,5.8,-,N/A,Rain,Light Rain,250,2013-02-22 09:21:00
3:30 AM,66.2,66.2,100,29.87,0.8,WSW,5.8,-,N/A,,Mist,250,2013-02-22 09:30:00
3:40 AM,66.2,66.2,100,29.88,1.0,West,4.6,-,N/A,Rain,Light Rain,280,2013-02-22 09:40:00
3:45 AM,66.2,66.2,100,29.87,1.5,Variable,5.8,-,N/A,Rain,Light Rain,0,2013-02-22 09:45:00
3:50 AM,66.2,66.2,100,29.87,3.0,WSW,6.9,-,N/A,Rain,Light Rain,250,2013-02-22 09:50:00
3:55 AM,68.0,66.2,94,29.87,8.0,WSW,6.9,-,N/A,Rain,Light Rain,250,2013-02-22 09:55:00
3:58 AM,67.3,66.6,98,29.88,8.0,WSW,6.9,-,0.02,Rain,Light Rain,250,2013-02-22 09:58:00
4:03 AM,68.0,68.0,100,29.87,9.0,WSW,6.9,-,N/A,Rain,Light Rain,240,2013-02-22 10:03:00
4:13 AM,68.0,66.2,94,29.87,10.0,West,5.8,-,N/A,Rain,Light Rain,260,2013-02-22 10:13:00
4:14 AM,68.0,66.2,94,29.87,10.0,West,5.8,-,N/A,,Overcast,260,2013-02-22 10:14:00
4:54 AM,68.0,66.2,94,29.89,9.0,North,12.7,-,N/A,,Overcast,360,2013-02-22 10:54:00
4:58 AM,67.1,66.6,98,29.90,10.0,North,12.7,-,0.01,,Overcast,10,2013-02-22 10:58:00
5:00 AM,66.2,66.2,100,29.89,10.0,North,10.4,-,N/A,Rain,Light Rain,10,2013-02-22 11:00:00
5:05 AM,66.2,64.4,94,29.90,8.0,NNE,6.9,-,N/A,Rain,Rain,20,2013-02-22 11:05:00
5:15 AM,64.4,64.4,100,29.90,10.0,NE,9.2,-,N/A,Rain,Light Rain,40,2013-02-22 11:15:00
5:20 AM,64.4,64.4,100,29.90,10.0,NNE,6.9,-,N/A,Rain,Light Rain,30,2013-02-22 11:20:00
5:25 AM,64.4,64.4,100,29.90,10.0,NE,8.1,-,N/A,Rain,Light Rain,40,2013-02-22 11:25:00
5:35 AM,64.4,64.4,100,29.90,8.0,NNE,8.1,-,N/A,Rain,Light Rain,30,2013-02-22 11:35:00
5:48 AM,64.4,62.6,94,29.90,10.0,NE,5.8,-,N/A,,Overcast,50,2013-02-22 11:48:00
5:58 AM,64.4,63.3,96,29.91,10.0,NNE,2.3,-,0.03,,Overcast,30,2013-02-22 11:58:00
6:08 AM,64.4,62.6,94,29.92,10.0,NE,8.1,-,N/A,,Overcast,40,2013-02-22 12:08:00
6:12 AM,64.4,62.6,94,29.92,10.0,NNE,5.8,-,N/A,Rain,Light Rain,30,2013-02-22 12:12:00
6:22 AM,64.4,62.6,94,29.93,10.0,NNE,5.8,-,N/A,,Overcast,30,2013-02-22 12:22:00
6:28 AM,64.4,62.6,94,29.93,10.0,NNE,5.8,-,N/A,Rain,Light Rain,20,2013-02-22 12:28:00
6:37 AM,64.4,62.6,94,29.94,10.0,NNE,4.6,-,N/A,,Mostly Cloudy,30,2013-02-22 12:37:00
6:50 AM,64.4,62.6,94,29.94,9.0,NNE,6.9,-,N/A,Rain,Light Rain,30,2013-02-22 12:50:00
6:58 AM,64.2,63.1,96,29.95,4.0,NE,6.9,-,0.02,Rain,Light Rain,40,2013-02-22 12:58:00
7:06 AM,64.4,62.6,94,29.95,10.0,NNE,6.9,-,N/A,,Overcast,30,2013-02-22 13:06:00
7:58 AM,64.0,63.0,96,29.97,10.0,NE,8.1,-,0.00,,Overcast,40,2013-02-22 13:58:00
8:48 AM,62.6,57.2,82,29.97,9.0,NE,11.5,-,N/A,Rain,Light Rain,40,2013-02-22 14:48:00
8:58 AM,63.0,57.7,83,29.97,7.0,NE,12.7,-,0.02,Rain,Light Rain,50,2013-02-22 14:58:00
9:04 AM,62.6,57.2,82,29.96,10.0,NE,16.1,-,N/A,,Overcast,50,2013-02-22 15:04:00
9:58 AM,64.0,57.4,79,29.98,10.0,NE,11.5,-,0.00,,Overcast,40,2013-02-22 15:58:00
10:23 AM,66.2,57.2,73,29.97,10.0,NE,11.5,-,N/A,,Overcast,50,2013-02-22 16:23:00
10:58 AM,65.1,52.3,63,29.98,10.0,NE,11.5,-,N/A,,Overcast,40,2013-02-22 16:58:00
11:58 AM,66.9,52.9,61,29.96,10.0,NE,12.7,-,N/A,,Overcast,40,2013-02-22 17:58:00
12:58 PM,68.0,50.0,52,29.94,10.0,NE,10.4,-,N/A,,Overcast,50,2013-02-22 18:58:00
1:58 PM,68.7,51.3,54,29.91,10.0,ENE,10.4,-,N/A,,Overcast,60,2013-02-22 19:58:00
2:28 PM,69.8,53.6,56,29.90,10.0,NE,6.9,-,N/A,,Overcast,50,2013-02-22 20:28:00
2:32 PM,68.0,53.6,60,29.90,10.0,ENE,6.9,-,N/A,Rain,Light Rain,70,2013-02-22 20:32:00
2:42 PM,66.2,55.4,68,29.90,10.0,ENE,6.9,-,N/A,Rain,Light Rain,70,2013-02-22 20:42:00
2:58 PM,65.3,56.7,74,29.90,10.0,ENE,5.8,-,0.00,Rain,Light Rain,60,2013-02-22 20:58:00
3:04 PM,64.4,57.2,77,29.89,10.0,NNE,4.6,-,N/A,Rain-Thunderstorm,Light Thunderstorms and Rain,30,2013-02-22 21:04:00
3:09 PM,64.4,57.2,77,29.89,10.0,NNE,5.8,-,N/A,Rain-Thunderstorm,Light Thunderstorms and Rain,30,2013-02-22 21:09:00
3:22 PM,64.4,57.2,77,29.90,10.0,North,3.5,-,N/A,Thunderstorm,Thunderstorm,350,2013-02-22 21:22:00
3:25 PM,64.4,57.2,77,29.89,10.0,Variable,2.3,-,N/A,Thunderstorm,Overcast,0,2013-02-22 21:25:00
3:27 PM,64.4,57.2,77,29.89,10.0,NE,3.5,-,N/A,Rain-Thunderstorm,Light Rain,50,2013-02-22 21:27:00
3:38 PM,64.4,57.2,77,29.89,10.0,North,5.8,-,N/A,,Overcast,360,2013-02-22 21:38:00
3:43 PM,64.4,57.2,77,29.89,10.0,WNW,6.9,-,N/A,,Overcast,300,2013-02-22 21:43:00
3:58 PM,63.5,57.4,80,29.91,10.0,NNW,8.1,-,0.01,,Overcast,340,2013-02-22 21:58:00
4:13 PM,62.6,57.2,82,29.89,10.0,North,5.8,-,N/A,,Overcast,10,2013-02-22 22:13:00
4:23 PM,62.6,57.2,82,29.90,10.0,North,6.9,-,N/A,,Overcast,360,2013-02-22 22:23:00
4:54 PM,62.6,57.2,82,29.91,10.0,North,4.6,-,N/A,,Overcast,360,2013-02-22 22:54:00
5:37 PM,60.8,57.2,88,29.91,10.0,NNE,8.1,-,N/A,,Overcast,20,2013-02-22 23:37:00
5:52 PM,60.8,57.2,88,29.90,10.0,NNE,8.1,-,N/A,,Overcast,30,2013-02-22 23:52:00
5:54 PM,60.8,57.2,88,29.90,10.0,NNE,6.9,-,N/A,,Overcast,30,2013-02-22 23:54:00
6:14 PM,60.8,57.2,88,29.90,10.0,NE,6.9,-,N/A,,Overcast,50,2013-02-23 00:14:00
6:58 PM,61.2,56.5,85,29.91,10.0,NE,5.8,-,N/A,,Overcast,40,2013-02-23 00:58:00
7:38 PM,60.8,57.2,88,29.90,10.0,NNE,5.8,-,N/A,,Overcast,30,2013-02-23 01:38:00
7:58 PM,61.0,56.3,85,29.91,10.0,NE,6.9,-,N/A,,Overcast,40,2013-02-23 01:58:00
8:58 PM,60.8,57.2,88,29.92,10.0,NNE,5.8,-,N/A,,Overcast,30,2013-02-23 02:58:00
9:33 PM,60.8,57.2,88,29.92,10.0,North,5.8,-,N/A,,Overcast,10,2013-02-23 03:33:00
9:43 PM,59.0,57.2,94,29.92,8.0,NNE,6.9,-,N/A,,Overcast,30,2013-02-23 03:43:00
9:48 PM,59.0,57.2,94,29.92,7.0,NNE,5.8,-,N/A,,Overcast,20,2013-02-23 03:48:00
9:58 PM,59.5,57.6,93,29.93,7.0,NNE,6.9,-,N/A,,Overcast,30,2013-02-23 03:58:00
10:03 PM,59.0,57.2,94,29.91,7.0,NNE,8.1,-,N/A,,Overcast,30,2013-02-23 04:03:00
10:08 PM,59.0,57.2,94,29.92,8.0,NNE,8.1,-,N/A,,Overcast,30,2013-02-23 04:08:00
10:18 PM,59.0,57.2,94,29.92,10.0,NNE,6.9,-,N/A,,Overcast,30,2013-02-23 04:18:00
10:28 PM,59.0,57.2,94,29.91,10.0,NE,8.1,-,N/A,,Overcast,40,2013-02-23 04:28:00
10:58 PM,58.6,57.6,96,29.91,10.0,NE,6.9,-,N/A,,Overcast,40,2013-02-23 04:58:00
11:43 PM,59.0,57.2,94,29.90,9.0,North,6.9,-,N/A,,Overcast,10,2013-02-23 05:43:00
11:58 PM,58.3,57.2,96,29.90,9.0,NNE,6.9,-,N/A,,Overcast,30,2013-02-23 05:58:00